TimeCST,TemperatureF,Dew PointF,Humidity,Sea Level PressureIn,VisibilityMPH,Wind Direction,Wind SpeedMPH,Gust SpeedMPH,PrecipitationIn,Events,Conditions,WindDirDegrees,DateUTC
12:15 AM,29.5,26.1,87,29.94,3.0,SE,5.8,-,N/A,,Clear,130,2013-01-08 06:15:00
12:35 AM,29.3,26.1,88,29.94,10.0,SE,5.8,-,N/A,,Clear,130,2013-01-08 06:35:00
12:55 AM,29.8,25.9,85,29.93,10.0,SE,8.1,-,N/A,,Clear,140,2013-01-08 06:55:00
1:15 AM,29.7,25.7,85,29.93,10.0,SE,8.1,-,N/A,,Clear,140,2013-01-08 07:15:00
1:35 AM,29.3,25.5,86,29.93,10.0,SSE,8.1,-,N/A,,Clear,150,2013-01-08 07:35:00
1:55 AM,29.1,25.3,86,29.93,10.0,SSE,9.2,-,N/A,,Clear,150,2013-01-08 07:55:00
2:15 AM,30.7,25.9,82,29.93,10.0,SSE,9.2,-,N/A,,Clear,160,2013-01-08 08:15:00
2:35 AM,30.6,25.7,82,29.93,10.0,SSE,9.2,-,N/A,,Clear,160,2013-01-08 08:35:00
2:55 AM,30.9,25.7,81,29.93,10.0,SSE,9.2,-,N/A,,Clear,160,2013-01-08 08:55:00
3:15 AM,30.7,25.7,82,29.92,10.0,SSE,10.4,-,N/A,,Clear,160,2013-01-08 09:15:00
3:35 AM,30.9,25.7,81,29.91,10.0,SSE,11.5,-,N/A,,Clear,160,2013-01-08 09:35:00
3:55 AM,30.9,25.7,81,29.91,10.0,SSE,10.4,-,N/A,,Clear,160,2013-01-08 09:55:00
4:15 AM,30.7,25.7,82,29.90,10.0,SSE,10.4,-,N/A,,Clear,160,2013-01-08 10:15:00
4:35 AM,30.9,26.1,82,29.89,10.0,SSE,9.2,-,N/A,,Clear,160,2013-01-08 10:35:00
4:55 AM,30.7,25.9,82,29.89,10.0,SSE,9.2,-,N/A,,Clear,160,2013-01-08 10:55:00
5:15 AM,30.2,25.7,83,29.88,10.0,SSE,10.4,-,N/A,,Clear,160,2013-01-08 11:15:00
5:35 AM,30.2,25.7,83,29.88,10.0,SSE,10.4,-,N/A,,Clear,160,2013-01-08 11:35:00
6:15 AM,30.9,26.1,82,29.89,10.0,SSE,10.4,-,N/A,,Clear,160,2013-01-08 12:15:00
6:35 AM,31.3,26.2,82,29.89,10.0,SSE,11.5,-,N/A,,Clear,160,2013-01-08 12:35:00
6:55 AM,31.1,26.2,82,29.88,10.0,SSE,12.7,-,N/A,,Clear,160,2013-01-08 12:55:00
7:35 AM,30.6,25.9,83,29.89,10.0,South,10.4,-,N/A,,Clear,170,2013-01-08 13:35:00
7:55 AM,30.7,26.1,83,29.89,10.0,SSE,10.4,-,N/A,,Clear,160,2013-01-08 13:55:00
8:15 AM,31.1,26.2,82,29.89,10.0,SSE,9.2,-,N/A,,Clear,160,2013-01-08 14:15:00
8:35 AM,32.0,26.8,81,29.90,10.0,SSE,10.4,-,N/A,,Clear,160,2013-01-08 14:35:00
8:55 AM,32.9,27.5,81,29.91,10.0,South,11.5,-,N/A,,Clear,170,2013-01-08 14:55:00
9:15 AM,33.1,28.0,82,29.91,10.0,SSE,11.5,-,N/A,,Clear,160,2013-01-08 15:15:00
9:35 AM,33.8,28.4,81,29.91,10.0,SSE,11.5,-,N/A,,Clear,160,2013-01-08 15:35:00
9:55 AM,35.4,29.3,78,29.90,10.0,South,13.8,18.4,N/A,,Clear,170,2013-01-08 15:55:00
10:15 AM,36.7,30.0,77,29.90,10.0,South,17.3,-,N/A,,Clear,180,2013-01-08 16:15:00
10:35 AM,38.3,30.9,75,29.89,10.0,South,17.3,-,N/A,,Clear,180,2013-01-08 16:35:00
10:55 AM,39.7,30.9,71,29.89,10.0,South,15.0,-,N/A,,Clear,190,2013-01-08 16:55:00
11:15 AM,40.3,30.7,69,29.89,10.0,South,13.8,18.4,N/A,,Clear,190,2013-01-08 17:15:00
11:35 AM,41.4,31.1,67,29.87,10.0,South,15.0,23.0,N/A,,Clear,190,2013-01-08 17:35:00
11:55 AM,42.6,31.3,64,29.86,10.0,SSW,17.3,24.2,N/A,,Clear,200,2013-01-08 17:55:00
12:15 PM,44.1,31.8,62,29.86,10.0,SSW,17.3,20.7,N/A,,Clear,210,2013-01-08 18:15:00
12:35 PM,44.8,31.5,60,29.86,10.0,SSW,19.6,25.3,N/A,,Clear,200,2013-01-08 18:35:00
12:55 PM,45.0,31.8,60,29.85,10.0,SSW,18.4,24.2,N/A,,Clear,200,2013-01-08 18:55:00
1:15 PM,45.3,31.5,58,29.84,10.0,SW,19.6,24.2,N/A,,Clear,220,2013-01-08 19:15:00
1:55 PM,45.1,31.6,59,29.86,10.0,SSW,17.3,25.3,N/A,,Clear,210,2013-01-08 19:55:00
2:15 PM,45.3,31.8,59,29.86,10.0,SW,17.3,24.2,N/A,,Clear,220,2013-01-08 20:15:00
2:35 PM,44.8,32.0,61,29.87,10.0,SSW,15.0,-,N/A,,Clear,210,2013-01-08 20:35:00
2:55 PM,44.8,32.0,61,29.88,10.0,SW,15.0,19.6,N/A,,Clear,220,2013-01-08 20:55:00
3:15 PM,44.6,32.0,61,29.89,10.0,SSW,15.0,19.6,N/A,,Clear,210,2013-01-08 21:15:00
3:35 PM,44.8,32.0,61,29.90,10.0,SSW,11.5,-,N/A,,Clear,210,2013-01-08 21:35:00
3:55 PM,44.4,32.0,62,29.91,10.0,SSW,12.7,19.6,N/A,,Clear,210,2013-01-08 21:55:00
4:15 PM,43.3,32.0,64,29.91,10.0,SW,12.7,-,N/A,,Clear,220,2013-01-08 22:15:00
4:35 PM,42.1,32.0,67,29.93,10.0,WSW,11.5,-,N/A,,Clear,240,2013-01-08 22:35:00
4:55 PM,40.3,31.8,72,29.94,10.0,WSW,9.2,-,N/A,,Clear,250,2013-01-08 22:55:00
5:15 PM,38.5,30.7,74,29.94,10.0,WSW,6.9,-,N/A,,Clear,240,2013-01-08 23:15:00
5:35 PM,37.8,30.4,75,29.94,10.0,WSW,6.9,-,N/A,,Clear,250,2013-01-08 23:35:00
5:55 PM,36.7,30.2,77,29.95,10.0,WSW,5.8,-,N/A,,Clear,240,2013-01-08 23:55:00
6:15 PM,36.0,30.2,80,29.97,10.0,SW,4.6,-,N/A,,Clear,220,2013-01-09 00:15:00
6:35 PM,36.5,30.6,79,29.99,10.0,SW,6.9,-,N/A,,Clear,220,2013-01-09 00:35:00
6:55 PM,37.0,30.7,78,29.99,10.0,SSW,6.9,-,N/A,,Mostly Cloudy,210,2013-01-09 00:55:00
7:15 PM,37.0,30.6,77,30.01,10.0,SSW,8.1,-,N/A,,Scattered Clouds,210,2013-01-09 01:15:00
7:35 PM,36.7,30.7,79,30.02,10.0,SW,9.2,-,N/A,,Scattered Clouds,220,2013-01-09 01:35:00
7:55 PM,36.0,30.2,80,30.03,10.0,SW,5.8,-,N/A,,Clear,220,2013-01-09 01:55:00
8:15 PM,36.1,30.2,79,30.04,10.0,WSW,8.1,-,N/A,,Clear,240,2013-01-09 02:15:00
8:35 PM,35.6,30.0,80,30.05,10.0,SW,5.8,-,N/A,,Clear,230,2013-01-09 02:35:00
8:55 PM,35.1,29.8,81,30.06,10.0,WSW,6.9,-,N/A,,Clear,240,2013-01-09 02:55:00
9:35 PM,35.4,30.0,81,30.08,10.0,WSW,8.1,-,N/A,,Clear,240,2013-01-09 03:35:00
9:55 PM,35.6,30.0,80,30.09,10.0,WSW,8.1,-,N/A,,Clear,240,2013-01-09 03:55:00
10:15 PM,35.2,29.8,81,30.11,10.0,WSW,8.1,-,N/A,,Clear,250,2013-01-09 04:15:00
10:35 PM,34.9,29.8,82,30.11,10.0,WSW,8.1,-,N/A,,Clear,250,2013-01-09 04:35:00
10:55 PM,34.3,29.7,83,30.12,10.0,SW,5.8,-,N/A,,Clear,230,2013-01-09 04:55:00
11:55 PM,34.7,29.8,82,30.13,10.0,West,8.1,-,N/A,,Clear,260,2013-01-09 05:55:00